This is the latest recevied weather packets stored in our database for station/object N8WJW. If no packets are shown the sender has not sent any weather packets the latest 10 day(s).
| Time | Temp. | Humidity | Pressure | Rain* | Wind** | Luminosity | Snow |
|---|---|---|---|---|---|---|---|
| 1788532065 | 20° C | 99% | 1018.9 hPa | 3.05 mm | - | 13 W/m² | - |
| 1788531761 | 20° C | 99% | 1018.9 hPa | 3.05 mm | - | 9 W/m² | - |
| 1788531461 | 20° C | 99% | 1018.9 hPa | 5.33 mm | - | 6 W/m² | - |
| 1788531156 | 20° C | 99% | 1019 hPa | 9.65 mm | - | 5 W/m² | - |
| 1788530851 | 20° C | 99% | 1019.4 hPa | 29.97 mm | - | 5 W/m² | - |
| 1788530547 | 20° C | 99% | 1019.7 hPa | 12.7 mm | - | 4 W/m² | - |
| 1788530245 | 20.56° C | 99% | 1019.8 hPa | 0 mm | - | 5 W/m² | - |
| 1788529941 | 20.56° C | 99% | 1019.6 hPa | 0 mm | - | 5 W/m² | - |
| 1788529637 | 20.56° C | 99% | 1019.3 hPa | 0 mm | - | 15 W/m² | - |
| 1788529336 | 20.56° C | 99% | 1018.8 hPa | 0 mm | - | 24 W/m² | - |
| 1788529031 | 20.56° C | 99% | 1018.6 hPa | 0 mm | - | 53 W/m² | - |
| 1788528728 | 20.56° C | 99% | 1018.4 hPa | 0 mm | - | 67 W/m² | - |
| 1788528427 | 20.56° C | 99% | 1018.4 hPa | 0 mm | - | 57 W/m² | - |
| 1788528123 | 20.56° C | 99% | 1018.5 hPa | 0 mm | - | 33 W/m² | - |
| 1788527821 | 20.56° C | 99% | 1018.5 hPa | 0 mm | - | 41 W/m² | - |
| 1788527516 | 20.56° C | 99% | 1018.3 hPa | 0 mm | - | 84 W/m² | - |
| 1788527211 | 20.56° C | 99% | 1018.5 hPa | 0 mm | - | 81 W/m² | - |
| 1788526911 | 20.56° C | 99% | 1018.2 hPa | 0 mm | - | 82 W/m² | - |
| 1788526607 | 20.56° C | 99% | 1018.2 hPa | 0 mm | - | 80 W/m² | - |
| 1788526303 | 20.56° C | 99% | 1018.3 hPa | 0 mm | - | 71 W/m² | - |
| 1788525997 | 20° C | 99% | 1018.5 hPa | 0 mm | - | 65 W/m² | - |
| 1788525693 | 20° C | 99% | 1018.5 hPa | 0 mm | - | 61 W/m² | - |
| 1788525393 | 20° C | 99% | 1018.5 hPa | 0 mm | - | 61 W/m² | - |
| 1788525088 | 19.44° C | 99% | 1018.3 hPa | 0 mm | - | 59 W/m² | - |
| 1788524783 | 19.44° C | 99% | 1018.2 hPa | 0 mm | - | 58 W/m² | - |
* Rain latest hour (hover to see other rain measurements)
** Current wind speed in m/s (hover to see current wind gust speed)